Regional Weather Roundup
Issued by NWS

Home | Current Version | Previous Version | Graphics & Text | Print | Product List | Glossary On
Versions: 1 2 3 4 5 6 7 8 9 10 11 12 13 14 15 16 17 18 19 20 21 22 23 24 25 26 27 28 29 30 31 32 33 34 35 36 37 38 39 40 41 42 43 44 45 46 47 48 49 50
000
ASUS45 KABQ 012101
RWRNM
WEATHER ROUNDUP FOR NEW MEXICO
NATIONAL WEATHER SERVICE ALBUQUERQUE NM
300 PM MDT WED OCT 01 2014

NOTE: "FAIR" MEANS FEW OR NO CLOUDS BELOW 12,000 FEET AGL WITH NO
       SIGNIFICANT WEATHER OR OBSTRUCTIONS TO VISION.

      THIS PRODUCT IS RELEASED AS TWO VERSIONS.  ONE VERSION NEAR
      THE TOP OF THE HOUR CONTAINING PRELIMINARY DATA FROM ALBUQUERQUE
      AND OTHER STATIONS.  A FINAL VERSION WITH ADDITIONAL DATA IS
      ISSUED ABOUT 10 MINUTES AFTER THE HOUR.

NMZ501-503-504-510>518-012200-
NORTHWEST PLATEAU/NORTHCENTRAL MOUNTAINS

CITY           SKY/WX    TMP DP  RH WIND       PRES   REMARKS
FARMINGTON     MOSUNNY   68  36  30 W15G24    29.92F
LOS ALAMOS     PTSUNNY   67  30  25 W10       29.97S
SANTA FE       SUNNY     71  30  21 SW13G24   29.94F
TAOS           MOSUNNY   68  30  24 W17G23    29.96F
ANGEL FIRE     FAIR      61  26  25 SW20G31   30.02F

$$
NMZ402-403-502-505>509-012200-
WESTCENTRAL MOUNTAINS/SOUTHWEST MOUNTAINS

CITY           SKY/WX    TMP DP  RH WIND       PRES   REMARKS
GALLUP         MOSUNNY   66  33  29 NW13      29.99F
SILVER CITY    SUNNY     73  32  21 NW15G24   29.98F

$$
NMZ407-409-411-412-012200-
SOUTHERN DESERTS

CITY           SKY/WX    TMP DP  RH WIND       PRES   REMARKS
LORDSBURG      FAIR      79  32  18 MISG      29.91F
DEMING         SUNNY     79  31  17 W15G28    29.90F
LAS CRUCES     SUNNY     81  28  14 W17G24    29.92F
HOLLOMAN AFB   SUNNY     82  30  15 VRB2      29.85F
ALAMOGORDO     SUNNY     81  37  21 S10       29.88F
T OR C         SUNNY     79  31  17 S10G17    29.88F

$$
NMZ519>523-012200-
CENTRAL VALLEYS/CENTRAL HIGHLANDS

CITY           SKY/WX    TMP DP  RH WIND       PRES   REMARKS
ALBUQUERQUE    MOSUNNY   75  29  18 SW10G21   29.90F
DOUBLE EAGLE   MOSUNNY   73  32  21 SW17      29.93F
CLINES CORNERS SUNNY     69  26  20 W21G29    29.97F
BELEN          FAIR      74  34  22 SE8       29.90F
SOCORRO        FAIR      78  32  18 SE6       29.89F

$$
NMZ524>526-539-540-012200-
SOUTHCENTRAL MOUNTAINS

CITY           SKY/WX    TMP DP  RH WIND       PRES   REMARKS
RUIDOSO        NOT AVBL

$$
NMZ527>531-012200-
NORTHEAST HIGHLANDS/NORTHEAST PLAINS

CITY           SKY/WX    TMP DP  RH WIND       PRES   REMARKS
LAS VEGAS      SUNNY     70  27  20 SW24G31   29.94F
RATON          MOSUNNY   72  31  22 S22G32    29.85F
CLAYTON        SUNNY     76  29  17 S17       29.84F

$$
NMZ532>537-012200-
EASTCENTRAL PLAINS

CITY           SKY/WX    TMP DP  RH WIND       PRES   REMARKS
TUCUMCARI      SUNNY     83  34  17 CALM      29.79F
CANNON AFB     SUNNY     81  39  22 SW9G17    29.83F
CLOVIS AIRPORT   N/A     81  39  22 SW12      29.85F

$$
NMZ028-029-538-012200-
SOUTHEAST PLAINS

CITY           SKY/WX    TMP DP  RH WIND       PRES   REMARKS
ROSWELL        SUNNY     82  39  21 S7        29.82F
CARLSBAD       SUNNY     87  39  18 SW14      29.79F
HOBBS          SUNNY     82  41  23 SW13G20   29.84F


$$



USA.gov is the U.S. government's official web portal to all federal, state and local government web resources and services.